TimeCST,TemperatureF,Dew PointF,Humidity,Sea Level PressureIn,VisibilityMPH,Wind Direction,Wind SpeedMPH,Gust SpeedMPH,PrecipitationIn,Events,Conditions,WindDirDegrees,DateUTC
12:54 AM,37.9,30.0,73,30.39,7.0,ESE,3.5,-,N/A,,Clear,110,2012-11-18 06:54:00
1:54 AM,37.0,30.0,76,30.39,7.0,ESE,4.6,-,N/A,,Clear,120,2012-11-18 07:54:00
2:54 AM,36.0,30.0,79,30.38,6.0,SE,4.6,-,N/A,,Haze,140,2012-11-18 08:54:00
3:54 AM,37.0,30.0,76,30.38,6.0,ESE,3.5,-,N/A,,Haze,120,2012-11-18 09:54:00
4:54 AM,35.1,30.0,82,30.38,6.0,ESE,6.9,-,N/A,,Haze,120,2012-11-18 10:54:00
5:54 AM,34.0,30.0,85,30.37,5.0,ESE,4.6,-,N/A,,Clear,120,2012-11-18 11:54:00
6:54 AM,34.0,30.0,85,30.37,5.0,SE,6.9,-,N/A,,Clear,130,2012-11-18 12:54:00
7:54 AM,35.1,30.9,85,30.36,4.0,ESE,6.9,-,N/A,,Clear,110,2012-11-18 13:54:00
8:54 AM,37.9,32.0,79,30.35,4.0,ESE,6.9,-,N/A,,Haze,110,2012-11-18 14:54:00
9:54 AM,45.0,33.1,63,30.33,7.0,SSE,9.2,-,N/A,,Clear,160,2012-11-18 15:54:00
10:54 AM,48.9,32.0,52,30.32,9.0,South,6.9,-,N/A,,Clear,170,2012-11-18 16:54:00
11:54 AM,54.0,30.9,41,30.30,10.0,SSE,11.5,-,N/A,,Clear,160,2012-11-18 17:54:00
12:54 PM,55.0,30.0,38,30.28,10.0,South,12.7,-,N/A,,Clear,180,2012-11-18 18:54:00
1:54 PM,55.0,30.0,38,30.27,10.0,SSE,15.0,-,N/A,,Scattered Clouds,160,2012-11-18 19:54:00
2:54 PM,54.0,30.0,40,30.25,10.0,SSE,16.1,-,N/A,,Scattered Clouds,160,2012-11-18 20:54:00
3:54 PM,53.1,30.0,41,30.25,10.0,SSE,11.5,-,N/A,,Mostly Cloudy,150,2012-11-18 21:54:00
4:54 PM,51.1,30.0,44,30.27,10.0,SSE,10.4,-,N/A,,Mostly Cloudy,160,2012-11-18 22:54:00
5:54 PM,48.9,30.9,50,30.28,10.0,SE,9.2,-,N/A,,Scattered Clouds,140,2012-11-18 23:54:00
6:54 PM,46.9,30.9,54,30.27,10.0,SE,8.1,-,N/A,,Mostly Cloudy,140,2012-11-19 00:54:00
7:54 PM,46.0,30.9,56,30.27,10.0,SSE,8.1,-,N/A,,Overcast,150,2012-11-19 01:54:00
8:54 PM,46.0,30.0,54,30.28,10.0,SSE,10.4,-,N/A,,Scattered Clouds,160,2012-11-19 02:54:00
9:54 PM,46.0,30.0,54,30.27,10.0,South,9.2,-,N/A,,Mostly Cloudy,170,2012-11-19 03:54:00
11:54 PM,43.0,32.0,65,30.25,10.0,SSE,6.9,-,N/A,,Partly Cloudy,160,2012-11-19 05:54:00